Regional Weather Roundup
Issued by NWS State College, PA

Home | Current Version | Previous Version | Text Only | Print | Product List | Glossary On
Versions: 1 2 3 4 5 6 7 8 9 10 11 12 13 14 15 16 17 18 19 20 21 22 23 24 25 26 27 28 29 30 31 32 33 34 35 36 37 38 39 40 41 42 43 44 45 46 47 48 49 50
000
ASUS41 KCTP 022110
RWRCTP

REGIONAL WEATHER ROUNDUP
NATIONAL WEATHER SERVICE STATE COLLEGE PA
500 PM EDT THU JUL 02 2015

Note: "fair" indicates few or no clouds below 12,000 feet with no
significant weather and/or obstructions to visibility.

* = STATION THAT DOES NOT REPORT PRECIPITATION /E.G. RAIN...SNOW...ETC/
    THUNDER OR FOG.

PAZ002>004-007>009-013>016-020>023-029>032-022200-
WESTERN PENNSYLVANIA

CITY           SKY/WX    TMP DP  RH WIND       PRES   REMARKS
ERIE           SUNNY     69  48  47 NE13      29.97S
MEADVILLE      MOSUNNY   71  54  54 N9        29.97R
FRANKLIN*      PTSUNNY   73  55  53 N5        29.96R
NEW CASTLE     MOCLDY    76  55  47 CALM      29.95R
BEAVER COUNTY  SUNNY     75  57  53 NW6       29.94S
BUTLER*        MOSUNNY   75  55  50 W3        29.95S
PITTSBURGH INT CLOUDY    77  54  44 VRB6      29.93S
PITTSBURGH     PTSUNNY   77  51  40 CALM      29.92F
INDIANA*       PTSUNNY   75  59  57 SW5       29.96S
LATROBE        PTSUNNY   72  61  68 CALM      29.94S
WASHINGTON CO* NOT AVBL
$$

PAZ004>006-010>012-017>019-024>028-033>037-041-042-045-046-049>053-022200-
CENTRAL PENNSYLVANIA

CITY           SKY/WX    TMP DP  RH WIND       PRES   REMARKS
BRADFORD       CLOUDY    70  51  51 VRB5      29.95F
DUBOIS         PTSUNNY   73  54  51 N7        29.93F
CLEARFIELD     PTSUNNY   73  58  59 NE5       29.93S
JOHNSTOWN      CLOUDY    69  56  62 VRB5      29.96S
ALTOONA        CLOUDY    73  60  63 E5        29.94R
STATE COLLEGE  MOSUNNY   73  59  60 CALM      29.92F
WILLIAMSPORT   CLOUDY    76  56  49 S3        29.88F
SELINSGROVE    CLOUDY    77  60  55 N5        29.90S
FT INDIANTOWN  CLOUDY    76  62  62 SW6       29.89S
CAPITAL CITY   CLOUDY    75  63  66 S5        29.89S
HARRISBURG     CLOUDY    74  64  71 S5        29.89S
YORK           CLOUDY    73  63  70 VRB3      29.90F
$$

PAZ038>040-043-044-047-048-054-055-060>062-067>071-022200-
EASTERN PENNSYLVANIA

CITY           SKY/WX    TMP DP  RH WIND       PRES   REMARKS
SCRANTON       CLOUDY    75  56  51 N6        29.91S
MOUNT POCONO   CLOUDY    70  57  63 SE3       29.94S
ALLENTOWN      CLOUDY    77  60  55 N3        29.88S
QUAKERTOWN*    CLOUDY    77  63  61 S5        29.89F
READING        CLOUDY    76  61  59 SW5       29.88S
LANCASTER      CLOUDY    72  62  71 S3        29.88F
COATESVILLE    CLOUDY    72  66  83 CALM      29.91F
POTTSTOWN      CLOUDY    74  63  68 SW3       29.90S
BLUE BELL      CLOUDY    75  63  64 CALM      29.88S
DOYLESTOWN     CLOUDY    74  62  66 SE3       29.88S
WILLOW GROVE   NOT AVBL
NORTH PHILA    CLOUDY    75  61  61 S3        29.89F
PHILADELPHIA   CLOUDY    75  62  64 S3        29.88F
$$



USA.gov is the U.S. government's official web portal to all federal, state and local government web resources and services.